GFSFLT2_con_lsi_000.txt.gz
Lid_Strength_Index
-1 -1 -1 -2 -2 -2 -2 -2 -1 -0 0 0 0 0 0 1 1 2 2 2 2 3 3 4 5 6 11
2 -0 -0 -1 -2 -2 -2 -1 -0 0 0 1 1 1 1 1 2 3 3 3 4 4 5 6 7 8 11
4 2 0 -1 -1 -0 0 1 4 7 6 6 4 1 2 2 3 4 4 5 6 6 6 7 9 12 12
3 4 3 3 3 5 6 7 9 10 9 8 5 2 3 3 4 5 6 7 10 13 13 11 13 13 13
6 6 6 6 7 7 8 10 11 11 10 10 10 11 11 9 12 12 13 14 14 14 14 14 14 14 14
7 6 7 7 9 9 10 11 13 13 12 12 14 14 15 15 15 15 15 14 14 14 14 15 15 15 15
8 8 8 8 8 10 11 12 13 12 13 14 14 15 15 15 15 16 15 15 15 15 15 15 15 15 15
7 8 7 8 10 11 12 12 13 13 13 14 15 15 16 16 16 16 16 16 16 16 16 16 15 15 15
7 8 8 9 11 11 12 13 13 13 14 14 14 16 16 16 16 16 16 17 17 16 17 16 16 15 15
7 8 9 10 10 11 12 13 13 13 14 14 15 16 16 16 16 17 17 17 17 17 17 17 16 16 15
8 9 10 11 11 11 13 13 13 13 14 14 15 16 16 17 17 17 18 18 18 18 17 17 17 16 16
9 11 13 13 12 13 13 13 14 14 15 15 15 16 16 17 17 18 18 18 18 18 17 17 17 17 17
11 12 13 12 13 14 13 13 14 14 15 15 16 16 17 17 18 18 18 18 18 18 18 18 18 17 17
11 11 12 12 14 13 14 15 15 15 15 15 16 16 17 18 18 18 18 18 18 19 19 19 19 19 18
12 12 16 16 17 17 17 16 16 15 16 16 16 16 17 17 18 18 18 18 19 19 19 18 20 20 20
12 13 13 14 14 14 14 14 15 16 16 16 16 17 17 18 18 18 18 19 18 19 18 18 19 19 20

GFSFLT2_con_lsi_006.txt.gz
Lid_Strength_Index
0 -0 -1 -1 -1 -2 -2 -2 -2 -2 -2 -2 -2 -2 -1 -1 -1 -0 0 1 2 2 3 4 6 6 5
-1 1 1 -0 -1 -1 -1 -1 -1 -1 -2 -2 -1 -2 -1 -1 0 1 1 2 2 4 5 6 7 7 6
-1 -0 1 0 0 0 0 0 1 -2 -1 -1 -0 -1 -1 -0 1 1 2 3 4 5 6 8 7 7 7
-1 -1 -1 -1 -1 -1 -1 -1 -1 -1 -0 0 1 -0 -1 0 2 2 3 6 8 7 8 9 8 8 8
-1 -1 -1 -1 -1 -1 -1 -1 -1 0 1 1 1 1 1 2 3 4 6 7 7 7 8 8 8 8 8
-1 -1 -1 -1 -1 -1 -1 -1 0 1 1 2 1 1 2 3 4 6 7 7 8 9 9 9 9 8 8
-0 -1 -1 -0 -1 -1 -1 -0 1 1 2 3 2 2 3 4 6 8 8 8 9 9 9 9 9 9 9
-0 -0 -0 -1 -1 -1 -0 1 1 2 3 4 3 4 5 6 8 8 8 9 9 9 10 10 10 9 9
0 -0 -0 -0 -1 -0 0 1 2 3 4 5 5 5 6 8 8 8 9 9 10 10 10 10 10 9 9
0 -0 -0 -0 0 0 1 1 3 4 5 5 6 7 8 9 9 9 10 10 10 10 10 10 10 10 10
1 0 0 1 1 1 1 2 3 4 5 6 6 7 9 9 9 10 10 10 10 10 11 10 10 10 10
2 1 1 1 2 2 2 2 3 5 6 7 7 7 9 9 10 10 10 10 10 10 12 11 11 10 10
3 3 3 3 3 3 2 3 4 5 6 7 8 8 9 9 9 10 10 11 12 11 10 11 11 11 11
4 4 3 4 3 3 3 4 5 5 6 7 7 8 10 10 10 10 11 12 11 11 10 10 12 12 12
6 5 5 7 6 6 5 6 6 6 7 7 8 8 10 10 11 11 11 11 12 12 11 9 12 11 12
7 7 7 8 9 8 8 7 7 7 7 8 8 9 9 10 11 11 11 10 10 12 12 12 11 10 12

GFSFLT2_con_lsi_009.txt.gz
Lid_Strength_Index
0 0 -0 -1 -1 -1 -1 -2 -2 -2 -1 -1 -2 -1 -1 -2 -2 -1 -0 1 1 2 4 5 5 4 4
-1 2 1 0 -0 -0 -0 -0 -0 -1 -1 -2 -1 -2 -2 -1 -1 -0 0 1 2 3 5 6 7 5 6
-1 -0 1 1 1 0 1 1 2 -1 -1 -1 -1 -2 -2 -1 -0 0 1 2 3 5 6 8 6 6 7
-0 -1 -1 -1 -1 -1 -1 -0 -0 -1 -1 -0 0 -1 -2 -1 0 1 2 3 5 6 7 7 7 7 7
-0 -1 -1 -1 -1 -1 -1 -1 -1 -1 -1 -0 -0 -0 -0 2 2 2 5 7 6 6 6 7 7 7 7
-0 -0 -0 -0 -1 -0 -1 -1 -1 -1 -1 -0 0 0 -0 1 2 3 5 5 6 7 7 7 8 7 7
0 -0 -0 -0 -0 -1 -1 -1 -1 -0 -0 0 1 0 0 2 3 4 6 7 7 8 8 8 8 8 8
0 -0 -0 -0 -1 -1 -1 -1 -1 -1 -0 1 1 1 1 2 4 6 6 7 7 7 8 9 9 8 8
0 0 -0 -0 -0 -0 -0 -1 -1 -1 0 1 2 2 2 3 5 6 7 7 8 8 8 9 9 8 9
0 0 -0 -0 -0 -0 -0 -1 -1 -0 1 2 3 3 3 5 6 7 8 8 8 9 9 9 8 8 9
0 -0 -0 -0 -0 -0 -1 -1 -0 1 2 3 3 3 4 6 7 8 8 8 8 9 9 9 9 8 9
1 0 0 0 -0 -0 -0 -0 0 1 2 4 4 5 6 7 8 7 8 8 8 9 11 10 9 9 9
3 3 2 1 1 0 0 0 1 2 3 4 5 5 7 8 8 8 8 9 8 9 10 10 11 10 10
4 3 3 2 2 1 1 1 2 2 3 5 6 6 7 8 8 8 9 10 9 10 9 10 12 12 11
6 5 4 4 6 6 4 3 3 3 4 5 6 7 7 8 8 8 9 10 11 11 9 9 11 12 12
7 7 7 7 7 7 6 5 5 5 5 6 7 7 8 8 9 9 9 9 9 12 11 11 10 9 12

GFSFLT2_con_lsi_015.txt.gz
Lid_Strength_Index
1 0 -0 -1 -1 -1 -1 -1 -1 -1 -2 -2 -2 -2 -1 -1 -2 -2 -1 -0 1 2 3 4 3 1 6
0 2 1 0 -0 -0 -0 0 1 -0 -1 -1 -1 -2 -2 -1 -2 -2 -0 0 1 3 5 5 4 4 8
1 1 2 2 1 1 1 2 2 2 1 1 1 -1 -2 -2 -2 -1 -0 1 2 4 6 6 5 10 9
-0 1 1 0 1 1 1 2 2 3 3 2 3 -0 -1 -2 -2 -1 0 1 4 9 10 7 10 10 10
1 1 0 -0 0 1 0 2 1 1 3 4 4 2 1 1 2 1 3 6 7 9 10 11 11 11 11
2 2 1 0 1 2 -0 1 1 1 2 4 5 4 3 4 4 5 6 8 9 10 10 11 11 11 11
2 3 3 1 2 2 2 0 0 1 4 4 5 5 4 4 5 6 7 9 10 10 10 11 11 11 11
2 3 3 3 3 3 3 2 1 1 4 5 5 5 4 4 5 7 9 10 10 11 11 11 11 11 11
3 3 3 3 3 3 3 2 2 2 3 5 6 5 4 4 6 8 9 10 11 11 11 11 11 11 11
3 3 3 3 3 3 3 2 3 2 3 5 6 6 5 5 7 9 10 11 11 12 12 12 12 11 11
3 3 3 3 3 3 3 3 3 4 5 5 6 7 7 7 9 9 11 11 12 13 12 13 12 12 12
5 4 4 3 3 2 2 2 2 3 4 6 6 7 7 9 10 11 11 12 12 13 12 12 13 12 12
7 7 6 6 5 4 3 3 2 3 3 5 6 7 9 9 10 11 12 12 13 13 13 14 14 13 13
9 8 8 9 8 6 6 4 4 4 4 5 7 7 9 10 11 12 12 13 13 13 14 15 16 15 14
11 10 10 10 10 10 8 7 7 5 5 6 7 8 9 10 11 11 12 12 13 13 13 14 17 17 16
11 12 13 13 13 12 11 11 11 9 7 7 7 8 9 10 11 12 12 12 13 14 14 12 14 15 17

GFSFLT2_con_lsi_021.txt.gz
Lid_Strength_Index
1 0 -0 -1 -1 -1 -1 -1 -1 -1 -1 -1 -2 -1 -2 -1 -1 -1 -0 -0 1 3 3 2 1 1 4
1 2 1 0 -0 -0 -0 0 1 1 0 -0 -0 -1 -2 -2 -1 -1 -0 0 1 4 4 3 3 3 6
-0 1 2 2 1 1 1 1 2 1 1 2 2 -0 -2 -2 -2 -1 -1 0 2 4 5 4 6 8 8
0 1 1 0 0 -0 -0 -0 1 2 1 2 3 1 -0 -1 -2 -1 -1 0 5 10 11 8 11 10 9
1 1 1 1 1 0 0 0 1 2 3 2 3 2 3 3 3 1 2 5 9 11 11 11 12 12 10
2 1 1 1 1 1 1 2 2 2 3 3 3 3 3 4 5 6 5 6 8 10 11 11 12 12 11
2 3 2 1 0 2 2 2 3 4 2 2 3 3 3 4 5 7 7 7 9 11 11 12 12 12 12
2 3 3 1 1 1 1 2 3 4 3 2 3 4 4 4 5 7 7 7 10 11 11 12 12 12 12
2 3 3 3 3 3 3 3 3 2 2 2 3 4 4 5 6 7 8 10 10 11 12 12 12 12 12
3 3 3 4 4 4 2 2 2 2 2 3 4 4 4 5 6 7 8 10 11 12 13 13 13 12 12
5 5 5 5 3 3 2 2 2 2 3 3 4 4 5 6 6 7 9 9 11 12 12 13 13 13 12
7 7 7 7 5 5 5 4 3 3 3 3 4 4 5 6 7 8 9 11 11 12 12 13 14 13 13
10 9 9 10 8 9 9 9 7 5 4 4 5 5 6 6 7 8 10 10 11 12 14 14 14 13 13
12 11 11 11 11 12 12 12 12 11 10 7 7 7 7 8 8 9 10 11 11 12 13 14 15 14 14
12 12 12 12 12 13 13 13 13 13 12 12 11 10 9 9 9 9 10 11 11 12 13 12 14 16 16
13 13 13 14 14 14 14 13 14 13 14 13 13 13 12 11 10 10 10 11 12 12 12 12 13 14 15

GFSFLT2_con_lsi_024.txt.gz
Lid_Strength_Index
1 0 -0 -1 -1 -1 -1 -1 -1 -1 -1 -1 -2 -2 -1 -2 -1 -1 -1 -0 1 2 2 1 0 1 4
1 2 2 1 0 -0 -0 0 1 1 -0 0 -0 -1 -1 -1 -1 -1 -1 -0 1 3 3 2 2 4 6
1 1 3 2 1 1 1 1 1 1 0 1 2 0 -1 -2 -2 -1 -0 -0 1 4 3 4 6 8 8
1 1 1 0 1 1 1 -0 0 0 1 1 2 1 -0 -0 -1 -1 -1 1 6 11 11 9 11 11 10
1 0 1 1 0 1 0 0 0 1 2 2 2 2 1 2 2 3 5 5 8 11 11 12 12 12 11
0 1 1 0 1 1 0 1 1 2 2 3 2 2 2 2 3 4 5 7 8 10 11 12 12 12 12
1 1 1 1 1 1 0 1 1 2 2 2 2 3 3 3 3 4 5 7 8 10 11 11 12 12 12
3 2 2 1 1 1 1 1 1 2 4 3 3 4 3 3 4 5 5 7 8 11 11 11 12 12 12
2 2 3 2 2 2 2 2 2 2 3 3 3 3 3 4 5 6 7 8 9 11 11 12 12 12 12
3 3 3 3 3 3 2 2 2 1 2 2 3 4 4 4 5 6 7 8 8 10 11 12 13 13 12
6 6 5 6 7 8 7 6 4 3 3 3 3 4 4 5 5 6 8 8 9 9 10 11 13 13 13
7 7 9 10 10 10 10 10 9 7 5 4 4 5 5 5 6 7 8 9 10 11 11 12 13 13 13
11 10 10 13 11 12 12 12 11 11 10 8 7 7 7 7 7 8 9 10 10 12 12 11 12 13 14
13 13 12 13 13 12 13 13 13 13 12 12 11 10 10 9 10 10 11 11 11 12 12 13 14 13 14
13 12 13 13 14 14 15 15 15 14 14 13 13 13 13 12 12 11 11 11 11 12 12 12 14 15 16
14 14 15 16 17 16 16 16 15 15 15 15 15 14 14 13 14 13 12 12 13 13 12 12 13 14 15

GFSFLT2_con_lsi_027.txt.gz
Lid_Strength_Index
1 -0 -1 -1 -1 -1 -1 -1 -1 -1 -2 -2 -2 -2 -1 -2 -2 -2 -1 -1 0 2 1 0 0 1 1
-1 2 1 0 -0 -0 -0 -0 1 0 -0 -0 0 -1 -1 -1 -1 -2 -1 -1 0 2 2 3 3 4 3
-0 0 3 2 1 1 1 1 1 -1 -1 -0 1 -0 -1 -1 -1 -1 -0 -0 2 5 4 5 6 5 5
1 -1 1 -0 -1 -1 -1 -1 -1 -1 -0 -0 1 1 -0 -1 -1 -1 1 3 5 8 7 7 7 7 6
2 -0 -0 -1 -1 -1 -1 -1 -1 -0 0 1 1 1 0 1 0 1 3 3 5 7 7 8 8 8 7
3 0 0 -0 -0 -0 -0 -0 -0 0 1 1 2 1 1 1 2 2 3 3 5 7 7 8 8 8 8
4 -0 -0 -0 -0 -1 -1 -0 1 1 2 2 1 1 1 2 2 3 4 4 4 6 8 8 8 8 8
3 0 1 0 0 0 1 0 1 1 1 2 2 2 2 1 1 3 4 4 5 6 7 8 8 8 8
1 1 1 1 2 2 2 2 2 1 1 2 2 2 2 2 3 4 5 5 6 7 7 8 8 8 8
3 4 6 7 7 7 7 5 5 4 3 3 3 3 3 3 4 5 6 6 6 7 7 7 8 8 8
7 8 10 10 10 9 9 8 7 6 4 5 5 5 4 5 5 6 7 7 7 8 9 8 9 8 8
8 10 10 10 10 11 11 10 10 9 7 7 7 6 6 6 6 6 7 8 9 10 10 10 9 9 9
9 9 11 12 12 12 12 12 11 11 10 9 9 9 8 8 9 8 8 8 9 9 9 8 8 9 10
11 11 11 12 13 13 13 14 13 12 12 11 11 11 11 10 10 10 10 9 9 10 10 10 10 9 10
11 11 12 12 13 14 14 15 14 14 13 13 13 13 12 12 12 11 11 11 11 10 10 11 11 12 12
14 14 14 15 16 15 15 15 15 14 14 14 13 14 14 13 14 13 12 12 10 12 10 10 10 12 13

GFSFLT2_con_lsi_030.txt.gz
Lid_Strength_Index
0 -0 -1 -1 -1 -2 -2 -2 -1 -1 -2 -1 -2 -2 -2 -2 -2 -2 -2 -1 1 1 1 1 1 1 -0
-1 2 2 0 -1 -1 -1 -1 0 0 -1 -0 -0 -1 -1 -2 -1 -1 -0 -1 1 2 2 3 3 2 1
-0 0 2 2 1 1 0 1 1 -2 -1 -1 0 -1 -2 -2 -1 -1 0 2 3 5 4 5 4 4 3
0 -1 -1 -1 -2 -1 -1 -1 -2 -1 -1 -1 1 1 0 -1 -2 -1 0 2 3 4 5 5 5 5 4
0 -1 -1 -1 -1 -1 -1 -1 -1 -1 -1 -0 -0 -0 -1 1 -1 -0 1 -1 1 3 4 5 5 5 5
3 -1 -1 -1 -1 -1 -2 -1 -2 -1 -1 -0 0 -0 0 -0 0 1 1 1 1 3 4 4 5 5 5
2 -1 -1 -1 -1 -1 -1 -1 -1 -1 -1 -1 -0 0 -0 0 -0 1 2 3 2 2 4 5 5 5 5
1 -0 -0 -0 0 1 1 0 1 0 0 0 1 -0 0 1 1 2 3 4 4 5 3 4 4 5 5
-0 2 4 4 4 4 3 3 3 1 1 1 2 3 2 2 3 3 4 4 4 4 5 5 4 4 4
6 7 8 7 7 7 6 5 4 3 3 3 3 4 4 4 5 5 5 5 5 4 3 4 6 5 5
9 9 9 9 9 8 7 7 7 5 5 5 4 4 4 5 4 5 5 6 6 6 7 7 7 7 5
9 10 9 9 8 8 8 8 8 7 6 5 6 5 5 4 5 4 5 5 6 6 7 7 4 5 5
8 8 8 9 9 9 9 8 8 7 7 6 6 6 6 6 6 6 5 6 7 7 5 5 5 6 7
7 8 8 10 11 11 11 11 10 10 9 9 8 8 8 8 8 7 7 6 7 7 8 7 7 6 7
9 9 10 10 11 11 12 12 12 11 11 11 11 11 10 10 10 9 8 8 8 7 8 8 9 9 9
9 9 9 10 12 13 13 12 12 12 12 11 11 12 11 11 11 11 11 10 10 11 9 9 8 9 10

GFSFLT2_con_lsi_033.txt.gz
Lid_Strength_Index
1 -0 -1 -1 -1 -2 -2 -2 -1 -1 -1 -2 -2 -2 -2 -2 -2 -1 -0 -1 1 1 1 1 1 0 0
-1 2 2 1 -1 -1 -1 -1 -0 -0 -1 -1 -1 -2 -2 -2 -2 -1 0 1 2 2 3 3 2 1 2
-0 0 2 2 1 1 0 1 1 -1 -1 -0 0 -1 -2 -2 -1 -1 -0 1 4 4 4 4 3 4 4
-1 -1 -1 -1 -1 -1 -1 -1 -1 -1 -1 -1 1 0 -0 -1 -1 -1 0 2 2 2 4 3 4 4 4
-1 -1 -1 -1 -1 -1 -1 -1 -1 -1 -1 -1 -0 -0 -1 1 -1 -1 0 -1 -0 1 3 3 4 4 4
2 -1 -1 -1 -1 -1 -1 -1 -1 -1 -1 -1 -0 -1 -1 -1 -1 0 1 1 1 2 3 3 4 4 4
1 -1 -1 -1 -1 -1 -1 -1 -1 -1 -1 -1 -1 -1 -0 -1 -1 -0 1 2 2 2 2 3 4 4 4
0 2 2 2 2 2 2 1 -0 -0 1 1 1 1 1 1 1 2 3 3 4 3 3 3 3 3 4
3 5 5 5 5 5 4 3 2 2 1 2 3 3 3 3 3 3 4 4 3 3 3 3 3 3 3
6 8 7 7 6 6 5 4 3 3 3 2 3 4 4 4 4 5 5 5 5 5 5 4 5 5 4
8 8 8 8 7 7 6 6 5 4 5 4 4 4 5 5 4 4 4 4 4 4 5 5 5 5 4
8 8 8 8 8 7 6 6 5 5 4 4 4 4 3 4 4 3 3 4 5 6 6 4 3 3 4
7 7 8 8 8 8 8 8 7 7 6 6 6 5 5 6 6 5 4 5 6 6 5 5 4 5 6
6 6 8 9 9 9 10 10 9 9 9 9 8 8 8 8 8 7 7 6 6 6 8 6 6 6 6
7 8 9 9 9 10 11 11 11 11 11 10 10 10 10 9 10 10 9 9 9 8 8 8 9 9 9
8 8 8 9 11 12 12 12 12 12 11 11 11 10 10 10 10 10 10 10 10 11 9 10 9 9 11